Year,Month,Day,Hour,Minute,Value (Times are PST for temperature in C)
2017,03,04,00,00,2.20
2017,03,04,00,01,2.20
2017,03,04,00,02,2.20
2017,03,04,00,03,2.20
2017,03,04,00,04,2.20
2017,03,04,00,05,2.20
2017,03,04,00,06,2.20
2017,03,04,00,07,2.20
2017,03,04,00,08,2.30
2017,03,04,00,09,2.30
2017,03,04,00,10,2.30
2017,03,04,00,11,2.30
2017,03,04,00,12,2.30
2017,03,04,00,13,2.30
2017,03,04,00,14,2.30
2017,03,04,00,15,2.30
2017,03,04,00,16,2.30
2017,03,04,00,17,2.30
2017,03,04,00,18,2.30
2017,03,04,00,19,2.30
2017,03,04,00,20,2.30
2017,03,04,00,21,2.30
2017,03,04,00,22,2.30
2017,03,04,00,23,2.30
2017,03,04,00,24,2.20
2017,03,04,00,25,2.20
2017,03,04,00,26,2.20
2017,03,04,00,27,2.20
2017,03,04,00,28,2.20
2017,03,04,00,29,2.20
2017,03,04,00,30,2.20
2017,03,04,00,31,2.20
2017,03,04,00,32,2.20
2017,03,04,00,33,2.20
2017,03,04,00,34,2.20
2017,03,04,00,35,2.20
2017,03,04,00,36,2.20
2017,03,04,00,37,2.20
2017,03,04,00,38,2.20
2017,03,04,00,39,2.20
2017,03,04,00,40,2.30
2017,03,04,00,41,2.30
2017,03,04,00,42,2.30
2017,03,04,00,43,2.30
2017,03,04,00,44,2.30
2017,03,04,00,45,2.40
2017,03,04,00,46,2.40
2017,03,04,00,47,2.40
2017,03,04,00,48,2.40
2017,03,04,00,49,2.40
2017,03,04,00,50,2.40
2017,03,04,00,51,2.40
2017,03,04,00,52,2.40
2017,03,04,00,53,2.50
2017,03,04,00,54,2.50
2017,03,04,00,55,2.50
2017,03,04,00,56,2.60
2017,03,04,00,57,2.60
2017,03,04,00,58,2.60
2017,03,04,00,59,2.70
2017,03,04,01,00,2.70
2017,03,04,01,01,2.70
2017,03,04,01,02,2.70
2017,03,04,01,03,2.70
2017,03,04,01,04,2.70
2017,03,04,01,05,2.70
2017,03,04,01,06,2.70
2017,03,04,01,07,2.80
2017,03,04,01,08,2.80
2017,03,04,01,09,2.80
2017,03,04,01,10,2.80
2017,03,04,01,11,2.80
2017,03,04,01,12,2.80
2017,03,04,01,13,2.80
2017,03,04,01,14,2.80
2017,03,04,01,15,2.80
2017,03,04,01,16,2.80
2017,03,04,01,17,2.80
2017,03,04,01,18,2.80
2017,03,04,01,19,2.80
2017,03,04,01,20,2.80
2017,03,04,01,21,2.80
2017,03,04,01,22,2.90
2017,03,04,01,23,2.90
2017,03,04,01,24,2.90
2017,03,04,01,25,2.90
2017,03,04,01,26,2.90
2017,03,04,01,27,2.90
2017,03,04,01,28,2.90
2017,03,04,01,29,2.90
2017,03,04,01,30,2.90
2017,03,04,01,31,2.90
2017,03,04,01,32,2.90
2017,03,04,01,33,2.90
2017,03,04,01,34,2.90
2017,03,04,01,35,2.90
2017,03,04,01,36,2.90
2017,03,04,01,37,2.90
2017,03,04,01,38,2.90
2017,03,04,01,39,2.90
2017,03,04,01,40,2.90
2017,03,04,01,41,2.90
2017,03,04,01,42,2.90
2017,03,04,01,43,2.90
2017,03,04,01,44,2.90
2017,03,04,01,45,2.90
2017,03,04,01,46,2.90
2017,03,04,01,47,2.90
2017,03,04,01,48,2.90
2017,03,04,01,49,2.90
2017,03,04,01,50,2.90
2017,03,04,01,51,2.90
2017,03,04,01,52,2.90
2017,03,04,01,53,2.90
2017,03,04,01,54,2.90
2017,03,04,01,55,2.90
2017,03,04,01,56,2.90
2017,03,04,01,57,2.90
2017,03,04,01,58,2.90
2017,03,04,01,59,2.90
2017,03,04,02,00,2.90
2017,03,04,02,01,2.80
2017,03,04,02,02,2.80
2017,03,04,02,03,2.70
2017,03,04,02,04,2.70
2017,03,04,02,05,2.70
2017,03,04,02,06,2.70
2017,03,04,02,07,2.70
2017,03,04,02,08,2.60
2017,03,04,02,09,2.60
2017,03,04,02,10,2.60
2017,03,04,02,11,2.50
2017,03,04,02,12,2.50
2017,03,04,02,13,2.50
2017,03,04,02,14,2.50
2017,03,04,02,15,2.50
2017,03,04,02,16,2.40
2017,03,04,02,17,2.40
2017,03,04,02,18,2.40
2017,03,04,02,19,2.30
2017,03,04,02,20,2.30
2017,03,04,02,21,2.30
2017,03,04,02,22,2.30
2017,03,04,02,23,2.30
2017,03,04,02,24,2.30
2017,03,04,02,25,2.30
2017,03,04,02,26,2.30
2017,03,04,02,27,2.30
2017,03,04,02,28,2.30
2017,03,04,02,29,2.30
2017,03,04,02,30,2.30
2017,03,04,02,31,2.30
2017,03,04,02,32,2.30
2017,03,04,02,33,2.30
2017,03,04,02,34,2.30
2017,03,04,02,35,2.20
2017,03,04,02,36,2.20
2017,03,04,02,37,2.20
2017,03,04,02,38,2.20
2017,03,04,02,39,2.20
2017,03,04,02,40,2.20
2017,03,04,02,41,2.20
2017,03,04,02,42,2.20
2017,03,04,02,43,2.20
2017,03,04,02,44,2.20
2017,03,04,02,45,2.20
2017,03,04,02,46,2.20
2017,03,04,02,47,2.20
2017,03,04,02,48,2.20
2017,03,04,02,49,2.20
2017,03,04,02,50,2.30
2017,03,04,02,51,2.30
2017,03,04,02,52,2.30
2017,03,04,02,53,2.30
2017,03,04,02,54,2.30
2017,03,04,02,55,2.30
2017,03,04,02,56,2.30
2017,03,04,02,57,2.40
2017,03,04,02,58,2.40
2017,03,04,02,59,2.40
2017,03,04,03,00,2.40
2017,03,04,03,01,2.40
2017,03,04,03,02,2.40
2017,03,04,03,03,2.40
2017,03,04,03,04,2.40
2017,03,04,03,05,2.40
2017,03,04,03,06,2.40
2017,03,04,03,07,2.40
2017,03,04,03,08,2.40
2017,03,04,03,09,2.40
2017,03,04,03,10,2.40
2017,03,04,03,11,2.40
2017,03,04,03,12,2.40
2017,03,04,03,13,2.40
2017,03,04,03,14,2.40
2017,03,04,03,15,2.40
2017,03,04,03,16,2.40
2017,03,04,03,17,2.30
2017,03,04,03,18,2.30
2017,03,04,03,19,2.30
2017,03,04,03,20,2.30
2017,03,04,03,21,2.30
2017,03,04,03,22,2.30
2017,03,04,03,23,2.30
2017,03,04,03,24,2.30
2017,03,04,03,25,2.20
2017,03,04,03,26,2.20
2017,03,04,03,27,2.20
2017,03,04,03,28,2.20
2017,03,04,03,29,2.20
2017,03,04,03,30,2.20
2017,03,04,03,31,2.20
2017,03,04,03,32,2.20
2017,03,04,03,33,2.20
2017,03,04,03,34,2.20
2017,03,04,03,35,2.20
2017,03,04,03,36,2.20
2017,03,04,03,37,2.20
2017,03,04,03,38,2.20
2017,03,04,03,39,2.20
2017,03,04,03,40,2.20
2017,03,04,03,41,2.20
2017,03,04,03,42,2.20
2017,03,04,03,43,2.20
2017,03,04,03,44,2.20
2017,03,04,03,45,2.20
2017,03,04,03,46,2.10
2017,03,04,03,47,2.10
2017,03,04,03,48,2.10
2017,03,04,03,49,2.10
2017,03,04,03,50,2.10
2017,03,04,03,51,2.10
2017,03,04,03,52,2.10
2017,03,04,03,53,2.00
2017,03,04,03,54,2.00
2017,03,04,03,55,2.00
2017,03,04,03,56,2.00
2017,03,04,03,57,2.00
2017,03,04,03,58,2.00
2017,03,04,03,59,2.00
2017,03,04,04,00,2.00
2017,03,04,04,01,2.00
2017,03,04,04,02,2.00
2017,03,04,04,03,2.00
2017,03,04,04,04,2.00
2017,03,04,04,05,2.00
2017,03,04,04,06,2.00
2017,03,04,04,07,2.00
2017,03,04,04,08,2.00
2017,03,04,04,09,2.10
2017,03,04,04,10,2.10
2017,03,04,04,11,2.10
2017,03,04,04,12,2.10
2017,03,04,04,13,2.20
2017,03,04,04,14,2.20
2017,03,04,04,15,2.20
2017,03,04,04,16,2.20
2017,03,04,04,17,2.20
2017,03,04,04,18,2.20
2017,03,04,04,19,2.20
2017,03,04,04,20,2.20
2017,03,04,04,21,2.20
2017,03,04,04,22,2.20
2017,03,04,04,23,2.20
2017,03,04,04,24,2.20
2017,03,04,04,25,2.10
2017,03,04,04,26,2.10
2017,03,04,04,27,2.10
2017,03,04,04,28,2.10
2017,03,04,04,29,2.10
2017,03,04,04,30,2.10
2017,03,04,04,31,2.10
2017,03,04,04,32,2.00
2017,03,04,04,33,2.00
2017,03,04,04,34,2.00
2017,03,04,04,35,2.00
2017,03,04,04,36,2.00
2017,03,04,04,37,2.00
2017,03,04,04,38,1.90
2017,03,04,04,39,1.90
2017,03,04,04,40,1.90
2017,03,04,04,41,1.90
2017,03,04,04,42,1.90
2017,03,04,04,43,1.90
2017,03,04,04,44,1.80
2017,03,04,04,45,1.80
2017,03,04,04,46,1.80
2017,03,04,04,47,1.80
2017,03,04,04,48,1.80
2017,03,04,04,49,1.80
2017,03,04,04,50,1.80
2017,03,04,04,51,1.80
2017,03,04,04,52,1.80
2017,03,04,04,53,1.80
2017,03,04,04,54,1.80
2017,03,04,04,55,1.70
2017,03,04,04,56,1.70
2017,03,04,04,57,1.70
2017,03,04,04,58,1.70
2017,03,04,04,59,1.60
2017,03,04,05,00,1.60
2017,03,04,05,01,1.60
2017,03,04,05,02,1.60
2017,03,04,05,03,1.50
2017,03,04,05,04,1.50
2017,03,04,05,05,1.50
2017,03,04,05,06,1.50
2017,03,04,05,07,1.50
2017,03,04,05,08,1.50
2017,03,04,05,09,1.50
2017,03,04,05,10,1.50
2017,03,04,05,11,1.50
2017,03,04,05,12,1.50
2017,03,04,05,13,1.50
2017,03,04,05,14,1.50
2017,03,04,05,15,1.50
2017,03,04,05,16,1.50
2017,03,04,05,17,1.50
2017,03,04,05,18,1.50
2017,03,04,05,19,1.50
2017,03,04,05,20,1.50
2017,03,04,05,21,1.50
2017,03,04,05,22,1.40
2017,03,04,05,23,1.40
2017,03,04,05,24,1.40
2017,03,04,05,25,1.40
2017,03,04,05,26,1.40
2017,03,04,05,27,1.40
2017,03,04,05,28,1.40
2017,03,04,05,29,1.40
2017,03,04,05,30,1.30
2017,03,04,05,31,1.30
2017,03,04,05,32,1.30
2017,03,04,05,33,1.30
2017,03,04,05,34,1.30
2017,03,04,05,35,1.30
2017,03,04,05,36,1.30
2017,03,04,05,37,1.30
2017,03,04,05,38,1.20
2017,03,04,05,39,1.20
2017,03,04,05,40,1.20
2017,03,04,05,41,1.20
2017,03,04,05,42,1.20
2017,03,04,05,43,1.20
2017,03,04,05,44,1.10
2017,03,04,05,45,1.10
2017,03,04,05,46,1.10
2017,03,04,05,47,1.10
2017,03,04,05,48,1.10
2017,03,04,05,49,1.10
2017,03,04,05,50,1.10
2017,03,04,05,51,1.10
2017,03,04,05,52,1.10
2017,03,04,05,53,1.10
2017,03,04,05,54,1.10
2017,03,04,05,55,1.10
2017,03,04,05,56,1.00
2017,03,04,05,57,1.00
2017,03,04,05,58,1.10
2017,03,04,05,59,1.10
2017,03,04,06,00,1.10
2017,03,04,06,01,1.10
2017,03,04,06,02,1.10
2017,03,04,06,03,1.10
2017,03,04,06,04,1.00
2017,03,04,06,05,1.00
2017,03,04,06,06,1.00
2017,03,04,06,07,1.00
2017,03,04,06,08,0.90
2017,03,04,06,09,0.80
2017,03,04,06,10,0.80
2017,03,04,06,11,0.80
2017,03,04,06,12,0.70
2017,03,04,06,13,0.70
2017,03,04,06,14,0.80
2017,03,04,06,15,0.80
2017,03,04,06,16,0.80
2017,03,04,06,17,0.80
2017,03,04,06,18,0.80
2017,03,04,06,19,0.80
2017,03,04,06,20,0.80
2017,03,04,06,21,0.80
2017,03,04,06,22,0.80
2017,03,04,06,23,0.90
2017,03,04,06,24,0.90
2017,03,04,06,25,1.00
2017,03,04,06,26,1.00
2017,03,04,06,27,1.10
2017,03,04,06,28,1.10
2017,03,04,06,29,1.10
2017,03,04,06,30,1.20
2017,03,04,06,31,1.20
2017,03,04,06,32,1.30
2017,03,04,06,33,1.30
2017,03,04,06,34,1.30
2017,03,04,06,35,1.40
2017,03,04,06,36,1.40
2017,03,04,06,37,1.50
2017,03,04,06,38,1.50
2017,03,04,06,39,1.60
2017,03,04,06,40,1.60
2017,03,04,06,41,1.60
2017,03,04,06,42,1.70
2017,03,04,06,43,1.70
2017,03,04,06,44,1.70
2017,03,04,06,45,1.70
2017,03,04,06,46,1.80
2017,03,04,06,47,1.80
2017,03,04,06,48,1.80
2017,03,04,06,49,1.80
2017,03,04,06,50,1.80
2017,03,04,06,51,1.80
2017,03,04,06,52,1.80
2017,03,04,06,53,1.80
2017,03,04,06,54,1.80
2017,03,04,06,55,1.70
2017,03,04,06,56,1.70
2017,03,04,06,57,1.70
2017,03,04,06,58,1.70
2017,03,04,06,59,1.70
2017,03,04,07,00,1.70
2017,03,04,07,01,1.70
2017,03,04,07,02,1.70
2017,03,04,07,03,1.80
2017,03,04,07,04,1.80
2017,03,04,07,05,1.80
2017,03,04,07,06,1.80
2017,03,04,07,07,1.80
2017,03,04,07,08,1.80
2017,03,04,07,09,1.80
2017,03,04,07,10,1.80
2017,03,04,07,11,1.80
2017,03,04,07,12,1.80
2017,03,04,07,13,1.80
2017,03,04,07,14,1.80
2017,03,04,07,15,1.80
2017,03,04,07,16,1.80
2017,03,04,07,17,1.80
2017,03,04,07,18,1.80
2017,03,04,07,19,1.80
2017,03,04,07,20,1.70
2017,03,04,07,21,1.70
2017,03,04,07,22,1.70
2017,03,04,07,23,1.70
2017,03,04,07,24,1.70
2017,03,04,07,25,1.70
2017,03,04,07,26,1.70
2017,03,04,07,27,1.70
2017,03,04,07,28,1.70
2017,03,04,07,29,1.70
2017,03,04,07,30,1.70
2017,03,04,07,31,1.70
2017,03,04,07,32,1.70
2017,03,04,07,33,1.70
2017,03,04,07,34,1.70
2017,03,04,07,35,1.60
2017,03,04,07,36,1.60
2017,03,04,07,37,1.60
2017,03,04,07,38,1.60
2017,03,04,07,39,1.60
2017,03,04,07,40,1.60
2017,03,04,07,41,1.60
2017,03,04,07,42,1.60
2017,03,04,07,43,1.60
2017,03,04,07,44,1.60
2017,03,04,07,45,1.60
2017,03,04,07,46,1.60
2017,03,04,07,47,1.60
2017,03,04,07,48,1.60
2017,03,04,07,49,1.60
2017,03,04,07,50,1.60
2017,03,04,07,51,1.70
2017,03,04,07,52,1.70
2017,03,04,07,53,1.70
2017,03,04,07,54,1.80
2017,03,04,07,55,1.80
2017,03,04,07,56,1.80
2017,03,04,07,57,1.80
2017,03,04,07,58,1.80
2017,03,04,07,59,1.90
2017,03,04,08,00,1.90
2017,03,04,08,01,2.00
2017,03,04,08,02,2.00
2017,03,04,08,03,2.00
2017,03,04,08,04,2.10
2017,03,04,08,05,2.10
2017,03,04,08,06,2.20
2017,03,04,08,07,2.20
2017,03,04,08,08,2.20
2017,03,04,08,09,2.20
2017,03,04,08,10,2.20
2017,03,04,08,11,2.20
2017,03,04,08,12,2.30
2017,03,04,08,13,2.30
2017,03,04,08,14,2.40
2017,03,04,08,15,2.40
2017,03,04,08,16,2.40
2017,03,04,08,17,2.40
2017,03,04,08,18,2.40
2017,03,04,08,19,2.50
2017,03,04,08,20,2.50
2017,03,04,08,21,2.50
2017,03,04,08,22,2.50
2017,03,04,08,23,2.60
2017,03,04,08,24,2.60
2017,03,04,08,25,2.60
2017,03,04,08,26,2.70
2017,03,04,08,27,2.70
2017,03,04,08,28,2.80
2017,03,04,08,29,2.80
2017,03,04,08,30,2.80
2017,03,04,08,31,2.90
2017,03,04,08,32,2.90
2017,03,04,08,33,2.90
2017,03,04,08,34,2.90
2017,03,04,08,35,2.90
2017,03,04,08,36,3.00
2017,03,04,08,37,3.10
2017,03,04,08,38,3.10
2017,03,04,08,39,3.10
2017,03,04,08,40,3.10
2017,03,04,08,41,3.10
2017,03,04,08,42,3.20
2017,03,04,08,43,3.20
2017,03,04,08,44,3.20
2017,03,04,08,45,3.30
2017,03,04,08,46,3.30
2017,03,04,08,47,3.30
2017,03,04,08,48,3.30
2017,03,04,08,49,3.40
2017,03,04,08,50,3.40
2017,03,04,08,51,3.50
2017,03,04,08,52,3.50
2017,03,04,08,53,3.60
2017,03,04,08,54,3.60
2017,03,04,08,55,3.60
2017,03,04,08,56,3.70
2017,03,04,08,57,3.80
2017,03,04,08,58,3.80
2017,03,04,08,59,3.80
2017,03,04,09,00,3.80
2017,03,04,09,01,3.80
2017,03,04,09,02,3.80
2017,03,04,09,03,3.80
2017,03,04,09,04,3.80
2017,03,04,09,05,3.90
2017,03,04,09,06,4.00
2017,03,04,09,07,4.10
2017,03,04,09,08,4.20
2017,03,04,09,09,4.30
2017,03,04,09,10,4.50
2017,03,04,09,11,4.50
2017,03,04,09,12,4.50
2017,03,04,09,13,4.50
2017,03,04,09,14,4.60
2017,03,04,09,15,4.60
2017,03,04,09,16,4.50
2017,03,04,09,17,4.50
2017,03,04,09,18,4.50
2017,03,04,09,19,4.50
2017,03,04,09,20,4.50
2017,03,04,09,21,4.50
2017,03,04,09,22,4.50
2017,03,04,09,23,4.50
2017,03,04,09,24,4.50
2017,03,04,09,25,4.40
2017,03,04,09,26,4.50
2017,03,04,09,27,4.50
2017,03,04,09,28,4.50
2017,03,04,09,29,4.50
2017,03,04,09,30,4.50
2017,03,04,09,31,4.60
2017,03,04,09,32,4.60
2017,03,04,09,33,4.60
2017,03,04,09,34,4.60
2017,03,04,09,35,4.50
2017,03,04,09,36,4.50
2017,03,04,09,37,4.50
2017,03,04,09,38,4.40
2017,03,04,09,39,4.40
2017,03,04,09,40,4.40
2017,03,04,09,41,4.30
2017,03,04,09,42,4.30
2017,03,04,09,43,4.20
2017,03,04,09,44,4.20
2017,03,04,09,45,4.30
2017,03,04,09,46,4.30
2017,03,04,09,47,4.30
2017,03,04,09,48,4.30
2017,03,04,09,49,4.30
2017,03,04,09,50,4.40
2017,03,04,09,51,4.40
2017,03,04,09,52,4.40
2017,03,04,09,53,4.50
2017,03,04,09,54,4.60
2017,03,04,09,55,4.60
2017,03,04,09,56,4.60
2017,03,04,09,57,4.60
2017,03,04,09,58,4.60
2017,03,04,09,59,4.70
2017,03,04,10,00,4.70
2017,03,04,10,01,4.60
2017,03,04,10,02,4.60
2017,03,04,10,03,4.60
2017,03,04,10,04,4.60
2017,03,04,10,05,4.60
2017,03,04,10,06,4.60
2017,03,04,10,07,4.60
2017,03,04,10,08,4.60
2017,03,04,10,09,4.50
2017,03,04,10,10,4.50
2017,03,04,10,11,4.50
2017,03,04,10,12,4.50
2017,03,04,10,13,4.60
2017,03,04,10,14,4.70
2017,03,04,10,15,4.70
2017,03,04,10,16,4.70
2017,03,04,10,17,4.80
2017,03,04,10,18,4.90
2017,03,04,10,19,4.80
2017,03,04,10,20,4.80
2017,03,04,10,21,4.70
2017,03,04,10,22,4.70
2017,03,04,10,23,4.70
2017,03,04,10,24,4.70
2017,03,04,10,25,4.70
2017,03,04,10,26,4.80
2017,03,04,10,27,4.80
2017,03,04,10,28,4.80
2017,03,04,10,29,4.70
2017,03,04,10,30,4.60
2017,03,04,10,31,4.60
2017,03,04,10,32,4.60
2017,03,04,10,33,4.50
2017,03,04,10,34,4.50
2017,03,04,10,35,4.50
2017,03,04,10,36,4.60
2017,03,04,10,37,4.60
2017,03,04,10,38,4.60
2017,03,04,10,39,4.70
2017,03,04,10,40,4.70
2017,03,04,10,41,4.60
2017,03,04,10,42,4.50
2017,03,04,10,43,4.50
2017,03,04,10,44,4.50
2017,03,04,10,45,4.60
2017,03,04,10,46,4.60
2017,03,04,10,47,4.50
2017,03,04,10,48,4.40
2017,03,04,10,49,4.30
2017,03,04,10,50,4.30
2017,03,04,10,51,4.40
2017,03,04,10,52,4.40
2017,03,04,10,53,4.50
2017,03,04,10,54,4.50
2017,03,04,10,55,4.60
2017,03,04,10,56,4.60
2017,03,04,10,57,4.60
2017,03,04,10,58,4.60
2017,03,04,10,59,4.60
2017,03,04,11,00,4.50
2017,03,04,11,01,4.50
2017,03,04,11,02,4.40
2017,03,04,11,03,4.30
2017,03,04,11,04,4.10
2017,03,04,11,05,4.00
2017,03,04,11,06,4.00
2017,03,04,11,07,3.90
2017,03,04,11,08,3.80
2017,03,04,11,09,3.80
2017,03,04,11,10,3.80
2017,03,04,11,11,3.80
2017,03,04,11,12,3.70
2017,03,04,11,13,3.70
2017,03,04,11,14,3.60
2017,03,04,11,15,3.60
2017,03,04,11,16,3.50
2017,03,04,11,17,3.60
2017,03,04,11,18,3.60
2017,03,04,11,19,3.70
2017,03,04,11,20,3.80
2017,03,04,11,21,4.00
2017,03,04,11,22,4.10
2017,03,04,11,23,4.30
2017,03,04,11,24,4.40
2017,03,04,11,25,4.40
2017,03,04,11,26,4.30
2017,03,04,11,27,4.20
2017,03,04,11,28,4.30
2017,03,04,11,29,4.30
2017,03,04,11,30,4.30
2017,03,04,11,31,4.20
2017,03,04,11,32,4.20
2017,03,04,11,33,4.20
2017,03,04,11,34,4.20
2017,03,04,11,35,4.20
2017,03,04,11,36,4.20
2017,03,04,11,37,4.20
2017,03,04,11,38,4.10
2017,03,04,11,39,4.00
2017,03,04,11,40,4.00
2017,03,04,11,41,3.90
2017,03,04,11,42,3.90
2017,03,04,11,43,3.90
2017,03,04,11,44,3.90
2017,03,04,11,45,3.90
2017,03,04,11,46,3.80
2017,03,04,11,47,3.80
2017,03,04,11,48,3.90
2017,03,04,11,49,3.90
2017,03,04,11,50,4.00
2017,03,04,11,51,4.00
2017,03,04,11,52,4.00
2017,03,04,11,53,4.00
2017,03,04,11,54,4.00
2017,03,04,11,55,4.00
2017,03,04,11,56,4.10
2017,03,04,11,57,4.10
2017,03,04,11,58,4.10
2017,03,04,11,59,4.00
2017,03,04,12,00,4.00
2017,03,04,12,01,4.00
2017,03,04,12,02,4.10
2017,03,04,12,03,4.20
2017,03,04,12,04,4.20
2017,03,04,12,05,4.20
2017,03,04,12,06,4.20
2017,03,04,12,07,4.20
2017,03,04,12,08,4.30
2017,03,04,12,09,4.50
2017,03,04,12,10,4.60
2017,03,04,12,11,4.70
2017,03,04,12,12,4.70
2017,03,04,12,13,4.90
2017,03,04,12,14,4.90
2017,03,04,12,15,4.90
2017,03,04,12,16,4.90
2017,03,04,12,17,4.90
2017,03,04,12,18,4.70
2017,03,04,12,19,4.70
2017,03,04,12,20,4.70
2017,03,04,12,21,4.70
2017,03,04,12,22,4.80
2017,03,04,12,23,4.80
2017,03,04,12,24,4.70
2017,03,04,12,25,4.70
2017,03,04,12,26,4.70
2017,03,04,12,27,4.70
2017,03,04,12,28,4.70
2017,03,04,12,29,4.70
2017,03,04,12,30,4.60
2017,03,04,12,31,4.60
2017,03,04,12,32,4.50
2017,03,04,12,33,4.50
2017,03,04,12,34,4.50
2017,03,04,12,35,4.50
2017,03,04,12,36,4.60
2017,03,04,12,37,4.60
2017,03,04,12,38,4.50
2017,03,04,12,39,4.50
2017,03,04,12,40,4.40
2017,03,04,12,41,4.40
2017,03,04,12,42,4.40
2017,03,04,12,43,4.40
2017,03,04,12,44,4.30
2017,03,04,12,45,4.30
2017,03,04,12,46,4.40
2017,03,04,12,47,4.50
2017,03,04,12,48,4.50
2017,03,04,12,49,4.60
2017,03,04,12,50,4.60
2017,03,04,12,51,4.70
2017,03,04,12,52,4.70
2017,03,04,12,53,4.60
2017,03,04,12,54,4.60
2017,03,04,12,55,4.60
2017,03,04,12,56,4.60
2017,03,04,12,57,4.60
2017,03,04,12,58,4.60
2017,03,04,12,59,4.60
2017,03,04,13,00,4.70
2017,03,04,13,01,4.70
2017,03,04,13,02,4.80
2017,03,04,13,03,4.70
2017,03,04,13,04,4.70
2017,03,04,13,05,4.80
2017,03,04,13,06,4.80
2017,03,04,13,07,4.90
2017,03,04,13,08,4.90
2017,03,04,13,09,4.90
2017,03,04,13,10,5.00
2017,03,04,13,11,5.10
2017,03,04,13,12,5.10
2017,03,04,13,13,5.10
2017,03,04,13,14,5.20
2017,03,04,13,15,5.20
2017,03,04,13,16,5.20
2017,03,04,13,17,5.10
2017,03,04,13,18,5.10
2017,03,04,13,19,5.10
2017,03,04,13,20,5.10
2017,03,04,13,21,5.10
2017,03,04,13,22,5.10
2017,03,04,13,23,5.20
2017,03,04,13,24,5.30
2017,03,04,13,25,5.30
2017,03,04,13,26,5.30
2017,03,04,13,27,5.30
2017,03,04,13,28,5.20
2017,03,04,13,29,5.20
2017,03,04,13,30,5.10
2017,03,04,13,31,5.10
2017,03,04,13,32,5.10
2017,03,04,13,33,5.10
2017,03,04,13,34,5.10
2017,03,04,13,35,5.10
2017,03,04,13,36,5.10
2017,03,04,13,37,5.10
2017,03,04,13,38,5.10
2017,03,04,13,39,4.90
2017,03,04,13,40,4.90
2017,03,04,13,41,4.90
2017,03,04,13,42,4.90
2017,03,04,13,43,5.00
2017,03,04,13,44,5.00
2017,03,04,13,45,5.00
2017,03,04,13,46,4.90
2017,03,04,13,47,4.90
2017,03,04,13,48,4.90
2017,03,04,13,49,5.00
2017,03,04,13,50,5.00
2017,03,04,13,51,4.90
2017,03,04,13,52,4.90
2017,03,04,13,53,4.90
2017,03,04,13,54,4.90
2017,03,04,13,55,4.90
2017,03,04,13,56,4.80
2017,03,04,13,57,4.80
2017,03,04,13,58,4.90
2017,03,04,13,59,4.90
2017,03,04,14,00,4.90
2017,03,04,14,01,4.90
2017,03,04,14,02,5.00
2017,03,04,14,03,5.10
2017,03,04,14,04,5.00
2017,03,04,14,05,4.90
2017,03,04,14,06,4.90
2017,03,04,14,07,4.90
2017,03,04,14,08,4.90
2017,03,04,14,09,4.90
2017,03,04,14,10,4.90
2017,03,04,14,11,5.00
2017,03,04,14,12,5.10
2017,03,04,14,13,5.10
2017,03,04,14,14,5.10
2017,03,04,14,15,5.10
2017,03,04,14,16,5.00
2017,03,04,14,17,4.90
2017,03,04,14,18,4.90
2017,03,04,14,19,4.90
2017,03,04,14,20,5.00
2017,03,04,14,21,5.10
2017,03,04,14,22,5.10
2017,03,04,14,23,5.10
2017,03,04,14,24,5.10
2017,03,04,14,25,5.20
2017,03,04,14,26,5.20
2017,03,04,14,27,5.20
2017,03,04,14,28,5.20
2017,03,04,14,29,5.20
2017,03,04,14,30,5.20
2017,03,04,14,31,5.30
2017,03,04,14,32,5.30
2017,03,04,14,33,5.30
2017,03,04,14,34,5.30
2017,03,04,14,35,5.30
2017,03,04,14,36,5.30
2017,03,04,14,37,5.30
2017,03,04,14,38,5.30
2017,03,04,14,39,5.30
2017,03,04,14,40,5.30
2017,03,04,14,41,5.30
2017,03,04,14,42,5.30
2017,03,04,14,43,5.30
2017,03,04,14,44,5.30
2017,03,04,14,45,5.30
2017,03,04,14,46,5.30
2017,03,04,14,47,5.30
2017,03,04,14,48,5.30
2017,03,04,14,49,5.20
2017,03,04,14,50,5.20
2017,03,04,14,51,5.20
2017,03,04,14,52,5.30
2017,03,04,14,53,5.30
2017,03,04,14,54,5.30
2017,03,04,14,55,5.30
2017,03,04,14,56,5.30
2017,03,04,14,57,5.30
2017,03,04,14,58,5.30
2017,03,04,14,59,5.30
2017,03,04,15,00,5.30
2017,03,04,15,01,5.20
2017,03,04,15,02,5.20
2017,03,04,15,03,5.20
2017,03,04,15,04,5.20
2017,03,04,15,05,5.30
2017,03,04,15,06,5.20
2017,03,04,15,07,5.30
2017,03,04,15,08,5.30
2017,03,04,15,09,5.20
2017,03,04,15,10,5.30
2017,03,04,15,11,5.30
2017,03,04,15,12,5.30
2017,03,04,15,13,5.30
2017,03,04,15,14,5.30
2017,03,04,15,15,5.30
2017,03,04,15,16,5.30
2017,03,04,15,17,5.30
2017,03,04,15,18,5.30
2017,03,04,15,19,5.30
2017,03,04,15,20,5.30
2017,03,04,15,21,5.30
2017,03,04,15,22,5.30
2017,03,04,15,23,5.30
2017,03,04,15,24,5.30
2017,03,04,15,25,5.40
2017,03,04,15,26,5.40
2017,03,04,15,27,5.40
2017,03,04,15,28,5.50
2017,03,04,15,29,5.50
2017,03,04,15,30,5.50
2017,03,04,15,31,5.50
2017,03,04,15,32,5.50
2017,03,04,15,33,5.60
2017,03,04,15,34,5.60
2017,03,04,15,35,5.60
2017,03,04,15,36,5.60
2017,03,04,15,37,5.70
2017,03,04,15,38,5.70
2017,03,04,15,39,5.70
2017,03,04,15,40,5.70
2017,03,04,15,41,5.70
2017,03,04,15,42,5.70
2017,03,04,15,43,5.60
2017,03,04,15,44,5.60
2017,03,04,15,45,5.60
2017,03,04,15,46,5.60
2017,03,04,15,47,5.60
2017,03,04,15,48,5.50
2017,03,04,15,49,5.50
2017,03,04,15,50,5.60
2017,03,04,15,51,5.60
2017,03,04,15,52,5.60
2017,03,04,15,53,5.70
2017,03,04,15,54,5.70
2017,03,04,15,55,5.70
2017,03,04,15,56,5.70
2017,03,04,15,57,5.80
2017,03,04,15,58,5.80
2017,03,04,15,59,5.80
2017,03,04,16,00,5.80
2017,03,04,16,01,5.70
2017,03,04,16,02,5.80
2017,03,04,16,03,5.90
2017,03,04,16,04,5.90
2017,03,04,16,05,5.90
2017,03,04,16,06,5.80
2017,03,04,16,07,5.80
2017,03,04,16,08,5.80
2017,03,04,16,09,5.80
2017,03,04,16,10,5.80
2017,03,04,16,11,5.80
2017,03,04,16,12,5.80
2017,03,04,16,13,5.80
2017,03,04,16,14,5.80
2017,03,04,16,15,5.70
2017,03,04,16,16,5.70
2017,03,04,16,17,5.70
2017,03,04,16,18,5.70
2017,03,04,16,19,5.70
2017,03,04,16,20,5.70
2017,03,04,16,21,5.70
2017,03,04,16,22,5.70
2017,03,04,16,23,5.70
2017,03,04,16,24,5.70
2017,03,04,16,25,5.70
2017,03,04,16,26,5.70
2017,03,04,16,27,5.70
2017,03,04,16,28,5.70
2017,03,04,16,29,5.70
2017,03,04,16,30,5.70
2017,03,04,16,31,5.70
2017,03,04,16,32,5.70
2017,03,04,16,33,5.70
2017,03,04,16,34,5.70
2017,03,04,16,35,5.70
2017,03,04,16,36,5.70
2017,03,04,16,37,5.70
2017,03,04,16,38,5.70
2017,03,04,16,39,5.70
2017,03,04,16,40,5.70
2017,03,04,16,41,5.70
2017,03,04,16,42,5.70
2017,03,04,16,43,5.70
2017,03,04,16,44,5.70
2017,03,04,16,45,5.70
2017,03,04,16,46,5.70
2017,03,04,16,47,5.70
2017,03,04,16,48,5.70
2017,03,04,16,49,5.70
2017,03,04,16,50,5.70
2017,03,04,16,51,5.60
2017,03,04,16,52,5.60
2017,03,04,16,53,5.60
2017,03,04,16,54,5.60
2017,03,04,16,55,5.60
2017,03,04,16,56,5.60
2017,03,04,16,57,5.60
2017,03,04,16,58,5.60
2017,03,04,16,59,5.60
2017,03,04,17,00,5.60
2017,03,04,17,01,5.60
2017,03,04,17,02,5.60
2017,03,04,17,03,5.60
2017,03,04,17,04,5.60
2017,03,04,17,05,5.60
2017,03,04,17,06,5.60
2017,03,04,17,07,5.60
2017,03,04,17,08,5.60
2017,03,04,17,09,5.60
2017,03,04,17,10,5.60
2017,03,04,17,11,5.60
2017,03,04,17,12,5.60
2017,03,04,17,13,5.60
2017,03,04,17,14,5.60
2017,03,04,17,15,5.60
2017,03,04,17,16,5.60
2017,03,04,17,17,5.60
2017,03,04,17,18,5.60
2017,03,04,17,19,5.60
2017,03,04,17,20,5.60
2017,03,04,17,21,5.60
2017,03,04,17,22,5.60
2017,03,04,17,23,5.60
2017,03,04,17,24,5.60
2017,03,04,17,25,5.60
2017,03,04,17,26,5.60
2017,03,04,17,27,5.60
2017,03,04,17,28,5.60
2017,03,04,17,29,5.60
2017,03,04,17,30,5.60
2017,03,04,17,31,5.60
2017,03,04,17,32,5.50
2017,03,04,17,33,5.50
2017,03,04,17,34,5.50
2017,03,04,17,35,5.50
2017,03,04,17,36,5.50
2017,03,04,17,37,5.50
2017,03,04,17,38,5.50
2017,03,04,17,39,5.50
2017,03,04,17,40,5.50
2017,03,04,17,41,5.50
2017,03,04,17,42,5.50
2017,03,04,17,43,5.50
2017,03,04,17,44,5.50
2017,03,04,17,45,5.50
2017,03,04,17,46,5.40
2017,03,04,17,47,5.40
2017,03,04,17,48,5.40
2017,03,04,17,49,5.40
2017,03,04,17,50,5.40
2017,03,04,17,51,5.40
2017,03,04,17,52,5.40
2017,03,04,17,53,5.40
2017,03,04,17,54,5.40
2017,03,04,17,55,5.40
2017,03,04,17,56,5.40
2017,03,04,17,57,5.40
2017,03,04,17,58,5.40
2017,03,04,17,59,5.40
2017,03,04,18,00,5.40
2017,03,04,18,01,5.40
2017,03,04,18,02,5.40
2017,03,04,18,03,5.40
2017,03,04,18,04,5.40
2017,03,04,18,05,5.40
2017,03,04,18,06,5.40